GW2364 Weather Reports


time (UTC)temp
C
wind
direction
speed
KPH
gust
KPH
rain 1hr
cm
rain 24hr
cm
rain mn
cm
humidity
%
barometer
mb
20260901060005 27 93 1.6 9.7 0.00 0.00 0.00 71 1013.5
20260901054504 28 113 1.6 11.3 0.00 0.00 0.00 71 1013.3
20260901053003 28 92 1.6 8.0 0.00 0.00 0.00 70 1013.3
20260901051512 28 109 1.6 8.0 0.00 0.00 0.00 70 1013.1
20260901050009 28 100 0.0 6.4 0.00 0.00 0.00 68 1013.0
20260901044506 29 40 1.6 11.3 0.00 0.00 0.00 67 1013.0
20260901043005 29 60 3.2 12.9 0.00 0.00 0.00 66 1013.0
20260901041504 29 124 1.6 14.5 0.00 0.00 0.00 65 1013.0
20260901040006 30 77 1.6 9.7 0.00 0.00 0.00 63 1012.9
20260901034504 30 355 1.6 14.5 0.00 0.00 0.00 61 1012.9
20260901033005 30 145 4.8 16.1 0.00 0.00 0.00 59 1012.8
20260901031504 30 118 3.2 16.1 0.00 0.00 0.00 56 1012.7
20260901030006 31 90 3.2 12.9 0.00 0.00 0.00 53 1012.5
20260901024504 31 40 4.8 17.7 0.00 0.00 0.00 51 1012.3
20260901023004 31 93 1.6 6.4 0.00 0.00 0.00 48 1011.9
20260901021504 31 80 3.2 9.7 0.00 0.00 0.00 48 1011.8
20260901020007 31 62 1.6 6.4 0.00 0.00 0.00 48 1011.6
20260901014511 31 72 1.6 3.2 0.00 0.00 0.00 47 1011.3
20260901013004 32 72 1.6 3.2 0.00 0.00 0.00 46 1011.3
20260901011504 32 72 1.6 6.4 0.00 0.00 0.00 44 1011.1
20260901010006 32 90 0.0 4.8 0.00 0.00 0.00 43 1011.0
20260901004504 33 88 1.6 11.3 0.00 0.00 0.00 43 1010.9
20260901003005 33 78 1.6 6.4 0.00 0.00 0.00 42 1010.8
20260901001503 34 74 3.2 9.7 0.00 0.00 0.00 41 1010.8
20260901000006 35 69 4.8 11.3 0.00 0.00 0.00 41 1010.7
20260831234507 35 155 3.2 12.9 0.00 0.00 0.00 40 1010.8
20260831233004 35 106 1.6 12.9 0.00 0.00 0.00 41 1010.6
20260831231504 36 105 6.4 12.9 0.00 0.00 0.00 39 1010.7
20260831230005 36 114 3.2 8.0 0.00 0.00 0.00 38 1010.8
20260831224503 36 76 1.6 12.9 0.00 0.00 0.00 40 1010.9
20260831223004 36 61 1.6 6.4 0.00 0.00 0.00 41 1010.9
20260831221504 36 130 4.8 11.3 0.00 0.00 0.00 41 1011.1
20260831220006 36 60 4.8 14.5 0.00 0.00 0.00 42 1011.0
20260831214508 36 77 4.8 9.7 0.00 0.00 0.00 42 1011.3
20260831213005 36 138 3.2 11.3 0.00 0.00 0.00 40 1011.7
20260831211504 37 257 3.2 14.5 0.00 0.00 0.00 39 1011.7
20260831210005 37 101 6.4 17.7 0.00 0.00 0.00 38 1012.0
20260831204503 37 102 4.8 12.9 0.00 0.00 0.00 40 1012.2
20260831203002 36 47 1.6 16.1 0.00 0.00 0.00 39 1012.6
20260831201503 36 46 4.8 14.5 0.00 0.00 0.00 42 1012.8
20260831200008 36 79 3.2 14.5 0.00 0.00 0.00 41 1013.0
20260831194504 36 63 1.6 9.7 0.00 0.00 0.00 44 1013.2
20260831193004 35 61 3.2 14.5 0.00 0.00 0.00 46 1013.4
20260831191503 34 104 4.8 12.9 0.00 0.00 0.00 50 1013.6
20260831190006 35 123 3.2 16.1 0.00 0.00 0.00 49 1013.7
20260831184502 35 34 4.8 16.1 0.00 0.00 0.00 49 1014.0
20260831183003 35 80 4.8 19.3 0.00 0.00 0.00 50 1014.1
20260831181503 35 94 3.2 14.5 0.00 0.00 0.00 52 1014.1
20260831180014 33 251 1.6 12.9 0.00 0.00 0.00 53 1014.3
20260831174503 33 105 3.2 16.1 0.00 0.00 0.00 53 1014.6
20260831173005 33 90 4.8 14.5 0.00 0.00 0.00 54 1014.8
20260831171503 33 245 1.6 11.3 0.00 0.00 0.00 58 1015.0
20260831170005 33 130 4.8 11.3 0.00 0.00 0.00 57 1014.9
20260831164502 32 237 1.6 9.7 0.00 0.00 0.00 61 1015.0
20260831163003 32 225 4.8 11.3 0.00 0.00 0.00 63 1015.1
20260831161503 31 246 3.2 9.7 0.00 0.00 0.00 66 1015.1
20260831160005 30 230 1.6 11.3 0.00 0.00 0.00 69 1014.9
20260831154503 30 230 1.6 11.3 0.00 0.00 0.00 71 1015.0
20260831153003 30 117 4.8 12.9 0.00 0.00 0.00 71 1014.9
20260831151503 29 221 4.8 16.1 0.00 0.00 0.00 73 1014.8
20260831150005 30 342 1.6 9.7 0.00 0.00 0.00 72 1014.8
20260831144502 28 205 1.6 6.4 0.00 0.00 0.00 78 1014.6
20260831143003 27 237 3.2 11.3 0.00 0.00 0.00 81 1014.6
20260831141502 27 252 1.6 8.0 0.00 0.00 0.00 84 1014.5
20260831140007 26 213 1.6 11.3 0.00 0.00 0.00 86 1014.3
20260831134503 26 207 1.6 6.4 0.00 0.00 0.00 90 1014.3
20260831133002 25 240 1.6 6.4 0.00 0.00 0.00 91 1014.2
20260831131503 25 225 0.0 3.2 0.00 0.00 0.00 93 1014.1
20260831130005 25 225 0.0 3.2 0.00 0.00 0.00 93 1014.0
20260831124503 24 225 0.0 3.2 0.00 0.00 0.00 94 1013.8
20260831123003 24 225 0.0 3.2 0.00 0.00 0.00 93 1013.8
20260831121505 24 225 0.0 1.6 0.00 0.00 0.00 93 1013.7
20260831120007 24 225 0.0 1.6 0.00 0.00 0.00 92 1013.6
20260831114506 24 225 0.0 1.6 0.00 0.00 0.00 92 1013.6
20260831113002 25 225 0.0 4.8 0.00 0.00 0.00 92 1013.7
20260831111503 25 225 0.0 4.8 0.00 0.00 0.00 91 1013.6
20260831110005 25 225 0.0 4.8 0.00 0.00 0.00 91 1013.5
20260831104502 25 225 0.0 4.8 0.00 0.00 0.00 91 1013.4
20260831103002 25 232 0.0 4.8 0.00 0.00 0.00 90 1013.5
20260831101502 25 213 0.0 4.8 0.00 0.00 0.00 90 1013.5
20260831100004 25 238 0.0 6.4 0.00 0.00 0.00 90 1013.6
20260831094502 25 238 1.6 6.4 0.00 0.00 0.00 90 1013.6
20260831093001 25 220 1.6 11.3 0.00 0.00 0.00 90 1013.5
20260831091502 25 226 1.6 6.4 0.00 0.00 0.00 89 1013.4
20260831090003 25 219 1.6 8.0 0.00 0.00 0.00 88 1013.4
20260831084600 25 220 3.2 12.9 0.00 0.00 0.00 88 1013.4
20260831084501 25 221 1.6 11.3 0.00 0.00 0.00 88 1013.5
20260831083001 25 221 1.6 8.0 0.00 0.00 0.00 88 1013.5
20260831081501 25 167 1.6 4.8 0.00 0.00 0.00 87 1013.6
20260831080004 25 271 0.0 6.4 0.00 0.00 0.00 86 1013.5
20260831074501 26 250 1.6 8.0 0.00 0.00 0.00 85 1013.5
20260831073004 26 213 0.0 4.8 0.00 0.00 0.00 83 1013.6
20260831071502 26 202 0.0 4.8 0.00 0.00 0.00 81 1013.7
20260831070003 26 223 1.6 9.7 0.00 0.00 0.00 79 1013.6
20260831064501 26 139 0.0 4.8 0.00 0.00 0.00 78 1013.8
20260831063001 27 94 1.6 11.3 0.00 0.00 0.00 77 1013.8
20260831061504 27 239 1.6 8.0 0.00 0.00 0.00 76 1013.5